[Date Prev][Date Next][Thread Prev][Thread Next][Date Index][Thread Index]

[jamsat-news:1511] jas2info #229



========================   最新情報   ==============================

        Last updated :Sat.9JUN2001  18:20(JST)   #229
        
====================================================================
   
  1)アマチュア通信衛星情報、FOシリーズの軌道要素、テレメトリ、QSOの
   状況等をまとめてみました.
   
   FO−29の2001年6月9日(土)の8:52(JST)のパスでは
  JARLのホームページのとうりアナログ運用でした。 今週の観測した
  テレメトリーと最終の分析結果を掲載しておきます.

AS23754  9JUN2001
8:52-9:02(JST)
FREQ.435.803-.786MHz

HI HI AE C7 88 55 00 D4 11 A5 09 4C 69       61 95 94 B0 8B A9 A6 A7 A8 A5 
HI HI AE C7 88 55 00 D4 11 A5 09 4C 70 78 76 61 96 94 B0 7C A9 A6 A7 A8 A5 
HI HI AE C7 88 55 00 D4 11 A5 09 4C 7D 6F 85 61 96 94 B0 6A AO A6 A7 A8 A5 
HI HI AE C7 88 55 00 D4 11 A5 09 4C 8D 6C 8B 61 96 94 B0 6E A9 A5 A7 A8 A5 
HI HI AE C7 88 55 00 D4 11 A5 09 4C 9D 71 83 61 96 94 B0 6F A9 A6 A7 A8 A5 
HI HI AE C7 88 55 00 D4 11 A5 09 4C A7 80 8C 62 96 94 B0 6A A9 A5 A7 A8 A5 
HI HI AE C7 88 55 00 D4 11 A5 09 4C A5 96 8C 61 96 94 B0 86 A9 A5 A7 A8 A5 
HI HI AE C7 88 55 00 D4 11 A5 09 4C 96 AD 7B 61 96 94 B0 5D A8 A5 A7 A8 A5 
HI HI AE C7 88 55 00 D4 11 A5 09 4C 7A BB 75 61 96 94 B0 5A A8 A5 A7 A7 A5 
HI HI AE C7 88 55 00 D4 11 A5 09 4C 58 BD 67 61 96 94 B0 6A A8 A5 A6 A7 A5 
HI HI AE C7 88 55 00 D4 11 A5 09 4C 37 AC 5E 61 96 94 B0 5B A8 A5 A6 A7 A5 
HI HI AE C7 88 55 00 D4 11 A5 09 4C 21 8D 5B 61 96 94 B0 A8 A8 A5 A6 A7 A5 
HI HI AE C7 88 55 00 D5 11 A5 09 4C 1C 64 66 61 96 94 B0 66 A8 A5 A6 A7 A5
HI HI AE C7 88 55 00 D4 11 A5 09 4C 29 3A 6E 61 96 64 B0 70 A8 A5 A6 A7 A5 

AS23747C1    8JUN2001
19:21-19:25(JST)
FREQ.435.797-435.790MHz

HI HI AE C7 88 55 00 D4 68 74 09 1B             95 94 B0 83 A5 A1 A3 A5 A5
HI HI AE C7 88 55 00 D4 68 74 09 1B 40 86 6A 62 96 94 B0 79 A5 A1 A3 A5 A5 
HI HI AE C7 88 55 00 D4 68 74 09 1B 4B 94 72 62 96 95 B0 67 A4 A1 A3 A4 A5 
HI HI AE C7 88 55 00 D4 68 74 09 1B 5C 98 6C 62 97 95 B0 85 A4 A1 A3 A4 A4 
HI HI AE C7 88 55 00 D4 68 74 09 1B 6F 92 6A 62 97 95 B0 8F A4 A1 A3 A4 A4 
HI HI AE C7 88 55 00 D4 68 74 09 1B 80 85 69 62 97 95 B0 6A A4 A1 A3 A4 A4 
HI HI AE C7 88 55 00 D4 13 8B 09 17 8C 75 69 62 97 95 B0 70 A4 A1 A2 A4 A4 
HI HI AE C7 88 55 00 D4 13 8B 09 17 91 69 6B 62 97 95 B0 86 A4 A1 A2 A4 A4 
HI HI AE C7 88 55 00 D4 13 8B 09 17 8F 63 61 62 97 95 B0 80 A4 A1 A2 A4 A4 
HI HI AE C7 88 55 00 D4 13 8B 09 15 87 5D       96 95 B0       A1 A2 A4 A4 
HI HI AE C7 88 55 00 D4 13 

AS23714C1    6JUN2001
9:51-10:00(JST)
FREQ. 435.801-.788MHz
HI HI AE C7 88 55 00 D4 97 CC 09 4C 6B 2B 7D 61 95 93 B0 74 AA A9 A9 A8 A6 
HI HI AE C7 88 55 00 D4 97 CC 09 4C 69 2A 86 61 95 93 B0 9E AA A9 A8 A8 A5 
HI HI AE C7 88 55 00 D4 97 CC 09 4C 5E 2E 87 61 95 93 B0 92 AA A9 A8 A8 A6 
HI HI AE C7 88 55 00 D4 97 CC 09 4C 4C 39 7D 61 95 93 B0 79 AA A9 A8 A8 A5 
HI HI AE C7 88 55 00 D4 97 CC 09 4C 39 48 7B 61 95 93 B0 64 AA A8 A8 A8 A6 
HI HI AE C7 88 55 00 D4 97 CC 09 4C 2D 56 79 61 95 93 B0 75 AA A8 A8 A7 A6 
HI HI AE C7 88 55 00 D4 97 CC 09 4C 27 61 73 61 95 93 B1 5D AA A8 A8 A7 A6 
HI HI AE C7 88 55 00 D4 97 CC 09 4C 31 66 6F 61 95 93 B1 55 AA A8 A8 A7 A5
HI HI AE C7 88 55 00 D4 97 CC 09 4C 48 64 6E 61 95 93 B0 64 AA A8 A8 A7 A5 
HI HI AE C7 88 55 00 D4 97 CC 09 4C 66 5D 6E 61 95 93 B0 73 AA A8 A7 A7 A5 
HI HI AE C7 88 55 00 D4 97 CC 09 4C 86 53 6C 61 95 93 B0 8A AA A8 A7 A7 A5 
HI HI AE C7 88 55 00 D4 97 CC 09 4C A1 4C 75 61 95 93 B0 63 AA A8 A7 A7 A5 
HI HI AE C7 88 55 00 D4 97 CC 09 4C AF 49 7F 61 95 93 B0 67 A9 A7 A7 A7 A5 
HI HI AE C7 88 55 00 D



AS23707C1   5JUN2001
20:08-20:25(JST)
FREQ.435.803-.787MHz

HI HI AE C7 88 55 00 D4 0C 21 09 4C 5F 43 48 65 95 93 A6 67 A5 A2 A5 A7 A6 
HI HI AE C7 88 55 00 D4 0C 21 09 4C 76 43 43 67 92 90 8F 67 A5 A2 A5 A7 A6 
HI HI AE C7 88 55 00 D4 0C 21 09 4C 8B 4F 4A 63 91 90 A9 83 A5 A2 A5 A7 A6 
HI HI AE C7 88 55 00 D4 0C 21 09 4C 99 65 55 60 93 91 B0 75 A5 A2 A5 A7 A6 
HI HI AE C7 88 55 00 D4 0C 21 09 4C 9C 7F 5E 61 94 92 B0 C1 A5 A2 A5 A7 A6 
HI HI AE C7 88 55 00 D4 0C 21 09 4C 94 97 67 61 95 93 B0 64 A5 A2 A5 A7 A6 
HI HI AE C7 88 55 00 D4 0C 21 09 4C 82 A8 6F 61 95 94 B0 74 A5 A2 A5 A6 A6 
HI HI AE C7 88 55 00 D4 0C 21 09 4C 6B AC 6C 62 96 94 B0 96 A5 A2 A5 A6 A6 
HI HI AE C7 88 55 00 D4 0C 21 09 4C 54 A5 68 62 96 95 B0 AF A5 A2 A5 A6 A6 
HI HI AE C7 88 55 00 D4 0C 21 09 4C 42 93 6A 61 96 95 B0 8B A5 A2 A5 A6 A6 
HI HI AE C7 88 55 00 D4 0C 21 09 4C 38 7A 6E 62 97 95 B0 5B A5 A2 A5 A6 A6 
HI HI AE C7 88 55 00 D4 0C 21 09 4C 3B 60 6F 62 97 95 B0 88 A5 A1 A5 A6 A6 
HI HI AE C7 88 55 00 D4 0C 21 09 4C 44 4A 66 62 97 95 B0 77 A5 A1 A4 A6 A6 
HI HI AE C7 88 55 00 D4 0C 21 08 4C 55 3C 5B 62 97 95 B0 4E A5 A1 A4 A6 A6 
HI HI AE C7 88 55 00 D4 0C 21 09 4C 68 38 4F 62 97 95 AF 74 A5 A1 A4 A6 A6 
HI HI AE C7 88 55 00 D4 0C 21 09 4C 79 3E 44 67 96 94 9F 56 A5 A1 A4 A6 A6 
HI HI AE C7 88 55 00 D4 0C 21 09 4C 85 4A 41 67 92 90 9E 69 A4 A1 A4 A6 A6 
HI HI AE C7 88 55 00 D4 0C 21 09 4C 89 58 4C 62 91 8F A7 69 A5 A1 A4 A6 A5 
HI HI AE C7 88 55 00 D4 0C 21 09 4C 85 65 51 60 92 90 AF 65 A5 A1 A4 A6 A6 
HI HI AE C7 88 55 00 D4 0C 21 09 4C 7C 6C 58 61 94 92 B0 7F A5 A1 A4 A6 A5 
HI HI AE C7 88 55 00 D4 0C 21 09 4C 71 6B 33 72 91 8F 95 73 A4 A1 A4 A6 A5 
HI HI AE 07 88 55 00 D4 0C 21 09 4C 69 64 00 8C 88 87 93 6A A4 A1 A4 A6 A5 
HI HI AE 07 88 55 00 D4 0C 21 09 4C 65 5A 00 88 87 86 91 8D A4 A1 A4 A6 A5 
HI HI AE 07 88 55 00 D4 0C 21 09 4C 6D 50 00 98 
 
 ------------------------ FO-29の軌道要素 ------------------------------        
 
  ■ 軌道要素1:「jamsat−keps:1009」より         
          SB KEPS @ AMSAT  $ORB01158.N
          2Line Orbital Elements 01158.AMSAT

HR AMSAT ORBITAL ELEMENTS FOR AMATEUR SATELLITES IN NASA FORMAT
FROM WA5QGD FORT WORTH,TX June 7, 2001
SEND SUBSCRIBE/UNSUBSCRIBE TO majordomo@amsat.org ONLY
BID: ORB01158.N

 DECODE 2-LINE ELSETS WITH THE FOLLOWING KEY:
 1 AAAAAU 00  0  0 BBBBB.BBBBBBBB  .CCCCCCCC  00000-0  00000-0 0  DDDZ
 2 AAAAA EEE.EEEE FFF.FFFF GGGGGGG HHH.HHHH III.IIII JJ.JJJJJJJJKKKKKZ
 KEY: A-CATALOGNUM B-EPOCHTIME C-DECAY D-ELSETNUM E-INCLINATION F-RAAN
 G-ECCENTRICITY H-ARGPERIGEE I-MNANOM J-MNMOTION K-ORBITNUM Z-CHECKSUM

FO-29
1 24278U 96046B   01157.62369058 -.00000024  00000-0  10548-4 0 04344
2 24278 098.5457 024.2792 0351523 029.3567 332.6807 13.52772926237218

 ■ 軌道要素2:「jamsat−keps:10108」より
        SB KEPS @ AMSAT  $ORB01158.O
        Orbital Elements  01158.OSCAR

HR AMSAT ORBITAL ELEMENTS FOR OSCAR SATELLITES
FROM WA5QGD FORT WORTH,TX June 7, 2001
SEND SUBSCRIBE/UNSUBSCRIBE TO majordomo@amsat.org ONLY
BID: ORB01158.O
TO ALL RADIO AMATEURS BT
 
Satellite: FO-29
Catalog number: 24278
Epoch time:      01157.62369058
Element set:    0434
Inclination:      098.5457 deg
RA of node:       024.2792 deg
Eccentricity:    0.0351523
Arg of perigee:   029.3567 deg
Mean anomaly:     332.6807 deg
Mean motion:   13.52772926 rev/day
Decay rate:       -2.4e-07 rev/day^2
Epoch rev:           23721
Checksum:              319

-------------------  FO-29(JAS-2)のテレメトリに関する情報  ---------------------- 
 
2)上記6月9日(土)のテレメトリ最終行を分析しておきます.

AS23754  9JUN2001
8:52-9:02(JST)
FREQ.435.803-.786MHz

HI HI AE C7 88 55 00 D4 11 A5 09 4C 29 3A 6E 61 96 64 B0 70 A8 A5 A6 A7 A5 

テレメトリ   内 容       換算算値 単 位  
3C	磁気センサーZ軸=	20098.0	[nT]
3D	磁気センサX軸	=	28431.4	[nT]
4A	太陽電池発生電流=	 1078.4	[mA]
4B	B充放電電流	=	  -98.8	[mA]
4C	B端子電圧	=	   16.1	[V]
4D	B中間端子電圧	=	    4.8	[V]
5A	バス電圧	=	   17.3	[V]
5B	JTA送信電力	=	  629.9	[mW]
5C 	構体温度1	=	   16.6	[℃]
5D	構体温度2	=	   17.8	[℃]
6A	構体温度3	=	   17.4	[℃]
6B	構体温度4	=	   17.0	[℃]
6C	Bセル温度	=	   17.8	[℃]
   	
 ========================== FO-29(ふじ3号)のQSO情報等 ======================
   
 3)[jamsat-bb:

 ===============================================================================
   4)JARL のホームページに運用予定が記載されていましたのでご紹介します.
       ( http://www.jarl.or.jp/Japanese/3_Fuji/new/uy.htm )

        ■ ふじ3号/FOー29/JAS-2 ■  
   
     *** 運用予定について ***

     4月2日 〜 7月2日 アナログ系運用

  *なお,運用予定は都合により変更することがありますので予めご了承願います。

 照会先 : lab@jarl.or.jp

 最新の情報はテレホンサービス(03−3942−1000)をお聞きください。  
 以後の運用につきましては平成13年7月上旬にお知らせ致します。    
    
-----------------------    FO−20(JAS-1b)道要素   -------------------------
  5)
  ■ 軌道要素1 :出典はFO-29「ふじ3号」に同じ.
  
FO-20
1 20480U 90013C   01157.72338904 -.00000062  00000-0 -61105-4 0 03246
2 20480 099.0608 228.0977 0540624 332.9607 024.4246 12.83292347530757
 
  ■ 軌道要素2 :出典はFO−29「ふじ3号」に同じ.
               
Satellite: FO-20
Catalog number: 20480
Epoch time:      01157.72338904
Element set:    0324
Inclination:      099.0608 deg
RA of node:       228.0977 deg
Eccentricity:    0.0540624
Arg of perigee:   332.9607 deg
Mean anomaly:     024.4246 deg
Mean motion:   12.83292347 rev/day
Decay rate:       -6.2e-07 rev/day^2
Epoch rev:           53075
Checksum:              296 
 --------------------------------------------------------------------------------
 
         ■ ふじ2号/FO−20/JAS-1b ■      
            
          「ふじ2号」 現況                                                                                  
             
   JAS-1b(ふじ2号)のCWテレメトリ信号に,1997年10月12日12時(JST)の
 日本上空通過時,3桁の数字が繰り返されるはずが3個の長音の繰り返しとなっているという
 異常が発見されました。この不具合は次の通過時からは回復していましたが13日15時20分の
 通過時に再び観測されました。現在はA0の送信が続いています。衛星のアナログ系中継モード
 動作は異常が無く,正常時のテレメトリ内容からは衛星の動作に異常は認められません。従って,
 直ちに衛星のミッションに影響することは無いと予想されますので,当面はアナログ系中継
 モードを継続します。衛星は既に打ち上げてから7年8ヶ月を経ておりますので,今後は監視を
 強化する予定です。アマチュア各位のレポートをお待ちします。
 -------------------------------------------------------------------------------- 
  1997年10月14日 00時35分 確認のテレメトリ音 151 KB (A0) 
  1997年10月14日 11時10分 確認のテレメトリ音 216 KB (異常キーイング) 

  以上 JARLのホ−ムページの http://www.jarl.or.jp/Japanese/3_Fuji/new/fuji.htm

===================== FO-20 ふじ2号 のテレメトリ観測結果 ====================

   5月29日(金)の観測結果では以前観測した単一周波数のドップラー効果で
 周波数がずれていくのみの状態でした。
                                         
   =============   JAS-2 (ふじ3号)と現在までの情報   ===========
  
  A.電話によるふじ3号の運用情報
      社団法人日本アマチュア連盟によるサービス
           TEL .   03− 3942 − 1000
  B.アマチュア無線FAXサービス
      JARLによるふじ3号の軌道情報(オービットカレンダー)
         FAX No.  03− 3233 −0055
  C.WWWブラウザで情報を簡単に見れる人のためにJAS−2
     ふじ3号の衛星としての運用されるまでの名前)の概要、打ち上げ
     までの状況、運用中における状況を説明したホームページを紹介し
     ておきます.
     社団法人日本アマチュア無線連盟(JARL)のホームページ

          http://www.jarl.or.jp/Japanese/3_Fuji/jasmenu.htm
 
     宇宙開発事業団(NASDA)ホームページ 
          http://www.nasda.go.jp/
         打上げ衛星 :地球観測プラットフォーム技術衛星(ADEOS) 
                       アマチュア衛星3号(JAS-2)
          http://spaceboy.nasda.go.jp/note/eisei/j/Eis15h_j.html#Eis15h_01_j
     http://spaceboy.nasda.go.jp/note/eisei/j/Eis15i_j.html        

  D.JAMSATによる軌道情報の活用
        JAMSATのホームページまたはjamsat−kepsの軌道要素より
      衛星の軌道情報を得る.
     JAMSATホームページ
               URL    http://www.jamsat.or.jp
       上記ホームページでは各地で行われるアマチュア通信衛星に関する
      ミューティングのお知らせや世界のアマチュア衛星に関する情報が
      満載されています.
 ========================================================================  
     JAMSATのメンバーのご協力によりJH6MME(高山 秀造)が
    執筆・編集を担当しております.ご指摘の意見、疑問やこのようにしたら
    というアイデアがありましたら小さなことでもかまいませんので気軽に下
    記アドレスまでご連絡ください.jamsat−newsからjas2
    infoへの転載をJH4PHW局坂井さんに担当して頂いております.  
                  E-mail : jh6mme@jamsat.or.jp : jh4phw@jamsat.or.jp
 ===============================   END  ===============================